GSAT0206 (PRN E30)

Last updated on Mon Jul 22 2024 00:03:08 GMT+0000 (Coordinated Universal Time)

1 40890U 15045B 24202.00774118 .00000082 00000+0 00000+0 0 9992 2 40890 55.2036 240.8583 0001198 10.4834 349.6178 1.70473745 55155
UTC large
Height (km)
Speed (km/s)
/
Latitude / Longitude
Inclination (degrees)
Orbital Period (minutes)
Azimuth
Elevation
Range (km)
Doppler Factor

Next 0 passes for location: London (51.5072 / 0.1276)

Sorry there are no passes over London.